Satellite-Ground Cal/Val Region Overpasses Predictions

Prediction of Satellite NPP Overpassing Cal/Val Region: PacNW

Region Location: (Latitude: 10.00, Longitude: 139.50) to (Latitude: 22.70, Longitude: 165.60).

Table of predicted overpasses for the next 14.0 days since TLE Epoch: 2/8/2019
Interval Starting Time Starting Location Ending Time Ending Location
1 02/09/2019 03:42:54 ( 10.03, 143.95) 02/09/2019 03:46:29 ( 22.65, 140.95)
2 02/09/2019 14:34:23 ( 18.76, 165.59) 02/09/2019 14:36:52 ( 10.01, 163.54)
3 02/09/2019 16:14:46 ( 22.68, 141.18) 02/09/2019 16:16:44 ( 15.76, 139.50)
4 02/10/2019 03:23:51 ( 10.02, 148.71) 02/10/2019 03:27:26 ( 22.64, 145.71)
5 02/10/2019 15:55:44 ( 22.69, 145.94) 02/10/2019 15:59:20 ( 10.01, 142.93)
6 02/11/2019 03:04:49 ( 10.01, 153.47) 02/11/2019 03:08:25 ( 22.69, 150.45)
7 02/11/2019 15:36:42 ( 22.65, 150.69) 02/11/2019 15:40:17 ( 10.02, 147.69)
8 02/12/2019 02:45:46 ( 10.00, 158.23) 02/12/2019 02:49:22 ( 22.68, 155.22)
9 02/12/2019 15:17:40 ( 22.65, 155.45) 02/12/2019 15:21:15 ( 10.03, 152.45)
10 02/13/2019 02:26:45 ( 10.05, 162.98) 02/13/2019 02:30:20 ( 22.67, 159.98)
11 02/13/2019 14:58:38 ( 22.66, 160.21) 02/13/2019 15:02:13 ( 10.04, 157.21)
12 02/14/2019 02:10:18 ( 19.20, 165.59) 02/14/2019 02:11:17 ( 22.66, 164.74)
13 02/14/2019 03:49:12 ( 10.05, 142.36) 02/14/2019 03:52:37 ( 22.09, 139.51)
14 02/14/2019 14:39:35 ( 22.67, 164.97) 02/14/2019 14:43:10 ( 10.05, 161.97)
15 02/14/2019 16:21:05 ( 22.66, 139.60) 02/14/2019 16:21:11 ( 22.31, 139.51)
16 02/15/2019 03:30:10 ( 10.04, 147.12) 02/15/2019 03:33:45 ( 22.66, 144.12)
17 02/15/2019 16:02:03 ( 22.67, 144.36) 02/15/2019 16:05:38 ( 10.05, 141.36)
18 02/16/2019 03:11:07 ( 10.04, 151.89) 02/16/2019 03:14:42 ( 22.66, 148.88)
19 02/16/2019 15:43:00 ( 22.68, 149.12) 02/16/2019 15:46:35 ( 10.06, 146.12)
20 02/17/2019 02:52:05 ( 10.03, 156.65) 02/17/2019 02:55:40 ( 22.65, 153.65)
21 02/17/2019 15:23:58 ( 22.68, 153.88) 02/17/2019 15:27:34 ( 10.00, 150.87)
22 02/18/2019 02:33:02 ( 10.02, 161.41) 02/18/2019 02:36:37 ( 22.64, 158.41)
23 02/18/2019 15:04:55 ( 22.69, 158.64) 02/18/2019 15:08:31 ( 10.01, 155.63)
24 02/19/2019 02:14:43 ( 12.54, 165.59) 02/19/2019 02:17:36 ( 22.70, 163.15)
25 02/19/2019 03:55:30 ( 10.02, 140.79) 02/19/2019 03:57:04 ( 15.55, 139.51)
26 02/19/2019 14:45:53 ( 22.70, 163.40) 02/19/2019 14:49:29 ( 10.02, 160.39)
27 02/20/2019 03:36:27 ( 10.02, 145.55) 02/20/2019 03:40:03 ( 22.70, 142.54)
28 02/20/2019 14:29:53 ( 11.96, 165.59) 02/20/2019 14:30:26 ( 10.02, 165.15)
29 02/20/2019 16:08:20 ( 22.70, 142.79) 02/20/2019 16:11:56 ( 10.02, 139.77)
30 02/21/2019 03:17:25 ( 10.01, 150.31) 02/21/2019 03:21:01 ( 22.69, 147.30)
31 02/21/2019 15:49:19 ( 22.64, 147.53) 02/21/2019 15:52:54 ( 10.02, 144.53)
32 02/22/2019 02:58:23 ( 10.01, 155.07) 02/22/2019 03:01:59 ( 22.69, 152.06)


NCC Satellite Cal/Val Overpasses Prediction Service
